Regional Weather Roundup
Issued by NWS Glasgow, MT

Home | Current Version | Previous Version | Text Only | Print | Product List | Glossary On
Versions: 1 2 3 4 5 6 7 8 9 10 11 12 13 14 15 16 17 18 19 20 21 22 23 24 25 26 27 28 29 30 31 32 33 34 35 36 37 38 39 40 41 42 43 44 45 46 47 48 49 50
000
ASUS45 KGGW 230315
RWRGGW
HOURLY WEATHER ROUNDUP FOR NORTHEAST MONTANA
NATIONAL WEATHER SERVICE GLASGOW MONTANA
900 PM MDT FRI AUG 22 2014

NOTE: "FAIR" INDICATES FEW OR NO CLOUDS BELOW 12,000 FEET WITH NO
SIGNIFICANT WEATHER AND/OR OBSTRUCTIONS TO VISISBILITY.

NORTHEAST MONTANA


CITY           SKY/WX    TMP DP  RH WIND       PRES   REMARKS
GLASGOW        CLOUDY    62  53  72 NE18G28   30.10R
PLENTYWOOD       N/A     62  51  67 E14         N/A
WOLF POINT     CLOUDY    65  54  67 E12       30.11R
JORDAN           N/A     63  57  81 NE14G23   30.07R
WINNETT          N/A     59  56  89 NE10        N/A
SIDNEY         CLOUDY    64  57  77 NE8       30.11S
GLENDIVE       CLOUDY    63  59  88 NE15      30.09R
MALTA            N/A     63  55  75 NE7         N/A

FORT PECK REPORTS


CITY           SKY/WX    TMP DP  RH WIND       PRES   REMARKS
FORT PECK        N/A     61  54  77 NE16        N/A
THE PINES        N/A     64  56  75 NE17G28     N/A

SOUTHEAST MONTANA


CITY           SKY/WX    TMP DP  RH WIND       PRES   REMARKS
BILLINGS       LGT RAIN  61  57  87 NE8       30.03R
MILES CITY     CLOUDY    63  60  90 NE15      30.02R
BAKER          CLOUDY    65  61  87 E17       30.06R
LIVINGSTON     LGT RAIN  55  50  83 SE8       30.08R

CENTRAL MONTANA


CITY           SKY/WX    TMP DP  RH WIND       PRES   REMARKS
HAVRE          LGT RAIN  57  55  93 NE16      30.14R
LEWISTOWN      CLOUDY    56  54  93 N9        30.10R
GREAT FALLS    CLOUDY    52  50  93 N18       30.15R
CUT BANK       CLOUDY    48  46  93 N17       30.24R
HELENA         LGT RAIN  58  50  75 N8        30.11R
BUTTE          LGT RAIN  49  47  93 W3        30.13F
BOZEMAN        LGT RAIN  53  50  89 NW8       30.08S

WESTERN MONTANA


CITY           SKY/WX    TMP DP  RH WIND       PRES   REMARKS
MISSOULA       CLOUDY    60  50  69 N14G22    30.06R
KALISPELL      NOT AVBL

NORTH DAKOTA


CITY           SKY/WX    TMP DP  RH WIND       PRES   REMARKS
WILLISTON      CLOUDY    64  54  69 E12       30.12S
DICKINSON      CLOUDY    64  61  90 E12       30.08R
MINOT          CLOUDY    63  59  87 N7        30.13R
BISMARCK       CLOUDY    67  64  90 NE13      30.07R

SOUTHERN SASKATCHEWAN


CITY           SKY/WX    TMP DP  RH WIND       PRES   REMARKS
REGINA         MOCLDY    59  52  77 E9        30.23R
ESTEVAN        CLOUDY    61  55  82 NE8       30.18S
SWIFT CURRENT  CLOUDY    55  52  88 NE14      30.22S




USA.gov is the U.S. government's official web portal to all federal, state and local government web resources and services.